This is the latest recevied weather packets stored in our database for station/object KY4LEX. If no packets are shown the sender has not sent any weather packets the latest 10 day(s).
| Time | Temp. | Humidity | Pressure | Rain* | Wind** | Luminosity | Snow |
|---|---|---|---|---|---|---|---|
| 1777585702 | 18.89° C | 31% | 1020.2 hPa | 0 mm | - | 273 W/m² | - |
| 1777585402 | 19.44° C | 30% | 1020.2 hPa | 0 mm | - | 285 W/m² | - |
| 1777585102 | 18.89° C | 33% | 1020.1 hPa | 0 mm | - | 301 W/m² | - |
| 1777584798 | 18.89° C | 35% | 1020.4 hPa | 0 mm | - | 312 W/m² | - |
| 1777584497 | 18.33° C | 33% | 1020 hPa | 0 mm | - | 326 W/m² | - |
| 1777584193 | 18.89° C | 33% | 1020.2 hPa | 0 mm | - | 341 W/m² | - |
| 1777583892 | 18.33° C | 32% | 1020.2 hPa | 0 mm | - | 352 W/m² | - |
| 1777583588 | 17.78° C | 32% | 1020.4 hPa | 0 mm | - | 366 W/m² | - |
| 1777583287 | 18.89° C | 34% | 1020.4 hPa | 0 mm | - | 377 W/m² | - |
| 1777582982 | 19.44° C | 35% | 1020.7 hPa | 0 mm | - | 390 W/m² | - |
| 1777582680 | 18.89° C | 34% | 1020.5 hPa | 0 mm | - | 405 W/m² | - |
| 1777582380 | 18.89° C | 32% | 1020.7 hPa | 0 mm | - | 417 W/m² | - |
| 1777582078 | 18.89° C | 31% | 1020.8 hPa | 0 mm | - | 431 W/m² | - |
| 1777581773 | 18.33° C | 32% | 1020.8 hPa | 0 mm | - | 444 W/m² | - |
| 1777581472 | 18.33° C | 33% | 1020.8 hPa | 0 mm | - | 457 W/m² | - |
| 1777581167 | 18.33° C | 32% | 1020.7 hPa | 0 mm | - | 470 W/m² | - |
| 1777580862 | 17.78° C | 37% | 1020.8 hPa | 0 mm | - | 483 W/m² | - |
| 1777580557 | 18.89° C | 33% | 1021 hPa | 0 mm | - | 494 W/m² | - |
| 1777580253 | 19.44° C | 33% | 1021 hPa | 0 mm | - | 515 W/m² | - |
| 1777579950 | 17.78° C | 36% | 1021.3 hPa | 0 mm | - | 526 W/m² | - |
| 1777579645 | 18.89° C | 33% | 1021.3 hPa | 0 mm | - | 544 W/m² | - |
| 1777579344 | 19.44° C | 32% | 1021.3 hPa | 0 mm | - | 544 W/m² | - |
| 1777579040 | 18.89° C | 35% | 1021.6 hPa | 0 mm | - | 561 W/m² | - |
| 1777578735 | 18.33° C | 35% | 1021.4 hPa | 0 mm | - | 580 W/m² | - |
| 1777578435 | 17.78° C | 36% | 1021.4 hPa | 0 mm | - | 585 W/m² | - |
* Rain latest hour (hover to see other rain measurements)
** Current wind speed in m/s (hover to see current wind gust speed)